Location: Blue Mountain Vista Observatory
(40.6992°N, 75.9422°W)
Time: 15:33:43
(UTC-04:00)

Amateur Radio Satellites - All Passes

Search period start: 24 May 2016 15:03
Search period end: 25 May 2016 15:03
Location: Blue Mountain Vista Observatory, 40.6992°N, 75.9422°W

Satellite Date Start Highest point End Downlink Frequencies (MHz)
Time Altitude Azimuth
ITUPSAT 1 24 May 15:04:00 15:08:38 46° 99° (E) 15:13:14 437.325
AIST 2 24 May 15:24:00 15:28:06 70° 302° (WNW) 15:32:15 435.215
Gurwin Techsat 1B 24 May 15:27:43 15:31:56 24° 266° (W) 15:36:10 435.225
JAS-2 24 May 15:28:04 15:28:51 10° 279° (W) 15:29:40 435.910
BEESAT 24 May 15:29:56 15:34:45 87° 107° (ESE) 15:39:32 436.000
AO-85 24 May 15:42:34 15:47:03 41° 51° (NE) 15:51:09 145.980
KKS-1 24 May 15:48:45 15:51:31 16° 93° (E) 15:54:16 437.445
AO-7 24 May 15:48:51 15:57:08 87° 71° (ENE) 16:05:31 29.400- 29.500
ITAMSAT 1 24 May 16:07:53 16:12:01 24° 265° (W) 16:16:11 435.822/435.867
HORYU 2 24 May 16:12:36 16:16:17 27° 68° (ENE) 16:19:59 437.375
STARS 24 May 16:33:40 16:37:18 25° 96° (E) 16:40:53 437.465
SWISSCUBE 24 May 16:38:35 16:41:56 19° 296° (WNW) 16:45:18 437.505
NOAA 15 24 May 16:39:56 16:42:01 12° 58° (ENE) 16:44:06 137.62
ITUPSAT 1 24 May 16:42:42 16:46:07 20° 296° (WNW) 16:49:33 437.325
Cosmos 2491 24 May 16:46:17 16:54:51 61° 269° (W) 17:03:22 435.465 / 435.565
YUBILEINY 24 May 16:46:42 16:55:14 64° 92° (E) 17:03:47 435.215
AIST 2 24 May 17:07:13 17:07:22 10° 323° (NW) 17:07:32 435.215
BEESAT 24 May 17:10:31 17:11:48 11° 301° (WNW) 17:13:05 436.000
MOZHAYETS 4 24 May 17:13:07 17:17:45 81° 285° (WNW) 17:22:23
CUTE-I 24 May 17:17:20 17:20:54 19° 62° (ENE) 17:24:28 437.470
RS-15 24 May 17:19:51 17:29:54 40° 106° (ESE) 17:40:25 29.354- 29.394
AO-85 24 May 17:23:48 17:27:09 21° 251° (WSW) 17:30:19 145.980
KKS-1 24 May 17:24:04 17:28:19 45° 288° (WNW) 17:32:31 437.445
GOMX 1 24 May 17:24:31 17:26:22 12° 59° (ENE) 17:28:13 467.674
NOAA 18 24 May 17:37:40 17:42:36 36° 67° (ENE) 17:47:32 137.9125
LilacSat-2 24 May 17:38:05 17:40:37 17° 67° (ENE) 17:43:09 437.200
AO-7 24 May 17:45:26 17:50:51 19° 269° (W) 17:56:19 29.400- 29.500
HORYU 2 24 May 17:48:58 17:52:45 28° 264° (W) 17:56:35 437.375
Cubesat XI-IV 24 May 18:07:54 18:13:01 51° 71° (ENE) 18:18:10 437.490
Cosmos 2504 24 May 18:08:09 18:15:06 56° 91° (E) 18:22:22 435.465 / 435.565
STARS 24 May 18:09:52 18:13:37 28° 292° (WNW) 18:17:21 437.465
BRITE-PL 24 May 18:15:16 18:20:46 66° 74° (ENE) 18:26:27 437.365/2234.400
NOAA 15 24 May 18:15:40 18:20:59 89° 80° (E) 18:26:20 137.62
M-CUBED/EXP-1 PRIME 24 May 18:25:11 18:26:37 12° 59° (ENE) 18:28:00 437.505
PCSat 24 May 18:27:27 18:30:40 16° 41° (NE) 18:33:53 145.827
CUBESAT XI-V 24 May 18:28:42 18:33:26 72° 102° (ESE) 18:38:07 437.345
DOVE 4 24 May 18:28:45 18:32:43 22° 66° (ENE) 18:36:37 437.250
YUBILEINY 24 May 18:45:29 18:52:38 28° 292° (WNW) 18:59:50 435.215
CUTE-I 24 May 18:55:14 19:00:27 59° 259° (W) 19:05:43 437.470
GOMX 1 24 May 18:58:04 19:03:35 81° 76° (ENE) 19:09:03 467.674
HO-68 24 May 19:00:38 19:06:21 27° 60° (ENE) 19:12:05 435.675
LilacSat-2 24 May 19:11:15 19:14:42 32° 263° (W) 19:18:08 437.200
CUTE 1.7 + AOD 2 24 May 19:15:34 19:17:55 15° 65° (ENE) 19:20:17 437.475
O/OREOS (USA 219) 24 May 19:16:07 19:18:59 16° 54° (NE) 19:21:50 437.305
NOAA 18 24 May 19:18:31 19:23:15 30° 264° (W) 19:28:02 137.9125
CINEMA 3 24 May 19:25:08 19:28:52 23° 68° (ENE) 19:32:30 145.822/145.860
RS-15 24 May 19:30:29 19:41:43 63° 309° (NW) 19:53:40 29.354- 29.394
COMPASS 1 24 May 19:49:29 19:52:17 18° 66° (ENE) 19:55:05 437.405
Cubesat XI-IV 24 May 19:49:35 19:53:21 20° 267° (W) 19:57:10 437.490
AUBIESAT-1 24 May 19:52:53 19:57:08 87° 73° (ENE) 20:01:06 437.475
AAUSAT CUBESAT 2 24 May 19:55:38 19:58:17 17° 66° (ENE) 20:00:56 437.432
BRITE-PL 24 May 19:56:04 19:59:41 17° 271° (W) 20:03:22 437.365/2234.400
M-CUBED/EXP-1 PRIME 24 May 19:56:25 20:00:45 70° 253° (WSW) 20:04:46 437.505
NOAA 15 24 May 20:00:22 20:01:26 11° 272° (W) 20:02:30 137.62
STRAND 1 24 May 20:00:33 20:05:31 48° 100° (E) 20:10:29 437.568
Cosmos 2504 24 May 20:03:08 20:08:57 26° 292° (WNW) 20:15:01 435.465 / 435.565
DOVE 4 24 May 20:05:00 20:10:05 47° 261° (W) 20:15:03 437.250
CUBESAT XI-V 24 May 20:08:08 20:10:12 13° 298° (WNW) 20:12:15 437.345
PCSat 24 May 20:09:26 20:14:54 86° 65° (ENE) 20:20:19 145.827
CANX-2 24 May 20:21:10 20:25:22 89° 247° (WSW) 20:29:36 2200.000
BEESAT 2 24 May 20:27:42 20:28:57 11° 40° (NE) 20:30:13 435.950
SEEDS 24 May 20:30:51 20:35:00 74° 76° (ENE) 20:39:11 437.485
CUBEBUG 2 24 May 20:37:19 20:41:26 39° 72° (ENE) 20:45:28 437.445
GOMX 1 24 May 20:39:41 20:42:11 13° 272° (W) 20:44:41 467.674
Oscar 11 24 May 20:40:17 20:43:34 22° 68° (ENE) 20:46:54 145.826/435.025
GONETS M04 24 May 20:46:07 20:49:34 13° 74° (ENE) 20:53:00
HO-68 24 May 20:46:31 20:53:34 61° 258° (WSW) 21:00:39 435.675
ZACube-1 24 May 20:47:43 20:51:04 23° 68° (ENE) 20:54:23 437.345
CUTE 1.7 + AOD 2 24 May 20:49:18 20:53:21 48° 261° (W) 20:57:27 437.475
O/OREOS (USA 219) 24 May 20:54:22 20:58:43 52° 253° (WSW) 21:03:03 437.305
DELFI C3 24 May 20:54:36 20:56:37 14° 65° (ENE) 20:58:39 145.870
CINEMA 3 24 May 21:01:20 21:05:48 37° 262° (W) 21:10:07 145.822/145.860
BEESAT 3 24 May 21:07:24 21:11:07 38° 52° (NE) 21:14:49 437.485
UWE-3 24 May 21:12:53 21:17:13 67° 75° (ENE) 21:21:26 435.000/436.395/437.385
AIST 1 24 May 21:16:22 21:19:54 24° 89° (E) 21:23:29
COMPASS 1 24 May 21:23:43 21:27:33 37° 262° (W) 21:31:26 437.405
HUMSAT D 24 May 21:26:33 21:28:51 15° 65° (ENE) 21:31:08 437.325/437.525
FUNcube-1 24 May 21:26:44 21:30:55 59° 75° (ENE) 21:35:03 145.935
AAUSAT CUBESAT 2 24 May 21:29:34 21:33:26 40° 262° (W) 21:37:21 437.432
PRISM 24 May 21:38:18 21:42:32 85° 280° (W) 21:46:41 437.425
STRAND 1 24 May 21:40:32 21:44:21 21° 296° (WNW) 21:48:10 437.568
ISS 24 May 21:41:46 21:42:31 11° 128° (SE) 21:43:17 145.825
RS-15 24 May 21:48:03 21:57:22 26° 340° (NNW) 22:07:02 29.354- 29.394
PCSat 24 May 21:55:29 21:57:28 12° 258° (WSW) 21:59:28 145.827
DANDE 24 May 21:58:39 22:01:01 11° 54° (NE) 22:03:22 436.750
BEESAT 2 24 May 22:03:25 22:07:26 87° 62° (ENE) 22:11:24 435.950
CUBEBUG 2 24 May 22:15:07 22:18:11 18° 267° (W) 22:21:12 437.445
Oscar 11 24 May 22:15:42 22:19:32 32° 263° (W) 22:23:24 145.826/435.025
ANTELSAT 24 May 22:20:05 22:22:05 13° 91° (E) 22:24:05 437.575/2403.000
ZACube-1 24 May 22:23:29 22:27:14 29° 263° (W) 22:30:56 437.345
DELFI C3 24 May 22:27:17 22:31:05 46° 261° (W) 22:34:55 145.870
CUBEBUG 1 24 May 22:28:46 22:29:29 10° 61° (ENE) 22:30:12 437.445
CUSAT 1 24 May 22:32:54 22:39:53 33° 67° (ENE) 22:46:03 437.405
GONETS M04 24 May 22:35:58 22:44:43 74° 94° (E) 22:53:28
BEESAT 3 24 May 22:45:48 22:48:32 18° 249° (WSW) 22:51:15 437.485
Cosmos 2499 24 May 22:52:35 22:59:28 53° 90° (E) 23:06:49 435.465 / 435.565
AIST 1 24 May 22:53:38 22:57:23 27° 285° (WNW) 23:01:10
UWE-3 24 May 22:53:39 22:54:04 10° 270° (W) 22:54:29 435.000/436.395/437.385
AISAT 24 May 22:59:20 23:02:53 23° 67° (ENE) 23:06:25 437.250
HUMSAT D 24 May 23:00:11 23:04:06 45° 261° (W) 23:08:02 437.325/437.525
FUNcube-1 24 May 23:06:13 23:07:30 11° 269° (W) 23:08:48 145.935
SPROUT 24 May 23:10:30 23:11:33 11° 62° (ENE) 23:12:36 437.525
UNISAT 6 24 May 23:13:31 23:17:43 52° 100° (E) 23:21:57 437.425
ISS 24 May 23:15:14 23:18:30 81° 320° (NW) 23:21:47 145.825
TIGRISAT 24 May 23:22:11 23:26:26 62° 101° (E) 23:30:43 435.000
ESTCUBE 1 24 May 23:23:04 23:27:27 56° 73° (ENE) 23:31:55 437.505/2401.250
UKube-1 24 May 23:25:04 23:28:46 28° 68° (ENE) 23:32:28 .
PHONESAT 2.4 24 May 23:28:13 23:30:41 21° 153° (SSE) 23:33:09 2401.200-2431.200
DANDE 24 May 23:37:40 23:45:53 52° 74° (ENE) 23:53:33 436.750
POPSAT HIP 1 24 May 23:39:02 23:41:49 17° 93° (E) 23:44:34 437.405
QB50P1 24 May 23:39:42 23:42:33 18° 93° (E) 23:45:24 145.935-145.965
QB50P2 24 May 23:40:40 23:43:42 19° 94° (E) 23:46:44 145.880/145.840
POLYITAN 1 24 May 23:43:04 23:46:08 19° 94° (E) 23:49:12 437.675
AIST 2 24 May 23:45:34 23:49:43 67° 57° (ENE) 23:53:49 435.215
ANTELSAT 24 May 23:54:55 23:59:06 53° 287° (WNW) 00:03:19 437.575/2403.000
50 SAT 24 May 23:55:06 23:58:43 77° 258° (WSW) 00:02:22 437.505
VELOX 1 24 May 23:58:54 00:03:23 86° 261° (W) 00:07:52 145.980
NANOSAT C BR1 24 May 23:59:26 00:03:03 28° 96° (E) 00:06:39 145.865
CUBEBUG 1 25 May 00:00:39 00:05:05 81° 256° (WSW) 00:09:33 437.445
DX 1 25 May 00:04:51 00:09:14 85° 257° (WSW) 00:13:40 434.975-435.025
RS-15 25 May 00:06:25 00:15:41 24° 16° (NNE) 00:25:06 29.354- 29.394
CUSAT 1 25 May 00:14:45 00:22:21 52° 269° (W) 00:28:51 437.405
SO-50 25 May 00:31:39 00:35:00 19° 110° (ESE) 00:38:22 436.795
AISAT 25 May 00:35:08 00:39:10 33° 263° (W) 00:43:14 437.250
GONETS M04 25 May 00:35:35 00:42:23 24° 294° (WNW) 00:49:13
DUCHIFAT 1 25 May 00:39:12 00:43:23 78° 103° (ESE) 00:47:33 145.980
SPROUT 25 May 00:42:36 00:46:54 73° 258° (WSW) 00:51:12 437.525
Cosmos 2499 25 May 00:46:58 00:52:59 28° 291° (WNW) 00:59:22 435.465 / 435.565
JAS-2 25 May 00:47:00 00:52:42 23° 89° (E) 00:57:57 435.910
UNISAT 6 25 May 00:51:44 00:54:01 14° 296° (WNW) 00:56:18 437.425
ISS 25 May 00:53:01 00:55:22 18° 342° (NNW) 00:57:42 145.825
TIGRISAT 25 May 01:00:55 01:02:37 12° 297° (WNW) 01:04:20 435.000
UKube-1 25 May 01:01:10 01:04:45 25° 264° (W) 01:08:23 .
BEESAT 25 May 01:02:13 01:03:32 11° 59° (ENE) 01:04:51 436.000
ESTCUBE 1 25 May 01:02:25 01:04:37 13° 269° (W) 01:06:50 437.505/2401.250
PHONESAT 2.4 25 May 01:04:02 01:07:08 68° 170° (S) 01:10:16 2401.200-2431.200
BUGSAT 1 25 May 01:10:56 01:15:01 83° 106° (ESE) 01:19:01 437.445
POPSAT HIP 1 25 May 01:13:51 01:17:45 38° 289° (WNW) 01:21:37 437.405
QB50P1 25 May 01:14:36 01:18:28 37° 289° (WNW) 01:22:19 145.935-145.965
QB50P2 25 May 01:15:47 01:19:36 34° 289° (WNW) 01:23:23 145.880/145.840
POLYITAN 1 25 May 01:18:14 01:22:01 33° 289° (WNW) 01:25:47 437.675
TISAT 1 25 May 01:18:39 01:22:53 80° 76° (ENE) 01:27:08 437.305
DANDE 25 May 01:20:59 01:28:27 37° 273° (W) 01:35:27 436.750
AIST 2 25 May 01:26:29 01:27:37 11° 252° (WSW) 01:28:45 435.215
NANOSAT C BR1 25 May 01:35:18 01:38:39 24° 292° (WNW) 01:41:59 145.865
Gurwin Techsat 1B 25 May 02:04:21 02:07:45 17° 91° (E) 02:11:08 435.225
Oscar 19 25 May 02:05:52 02:10:46 41° 98° (E) 02:15:36 437.125/150
SWISSCUBE 25 May 02:05:54 02:10:30 52° 72° (ENE) 02:15:08 437.505
SO-50 25 May 02:10:15 02:15:04 56° 306° (NW) 02:19:55 436.795
ITUPSAT 1 25 May 02:10:20 02:14:56 51° 72° (ENE) 02:19:33 437.325
RS-15 25 May 02:20:01 02:32:00 53° 47° (NE) 02:43:56 29.354- 29.394
JAS-2 25 May 02:30:48 02:38:21 68° 288° (WNW) 02:45:08 435.910
ISS 25 May 02:31:22 02:32:49 12° 3° (N) 02:34:15 145.825
BEESAT 25 May 02:35:50 02:40:36 85° 256° (WSW) 02:45:23 436.000
PHONESAT 2.4 25 May 02:40:45 02:43:53 85° 184° (S) 02:47:01 2401.200-2431.200
ITAMSAT 1 25 May 02:42:07 02:44:54 14° 91° (E) 02:47:38 435.822/435.867
KKS-1 25 May 02:46:57 02:49:38 16° 64° (ENE) 02:52:18 437.445
YUBILEINY 25 May 02:57:32 03:05:04 31° 69° (ENE) 03:12:34 435.215
STARS 25 May 03:30:13 03:33:40 23° 67° (ENE) 03:37:07 437.465
Gurwin Techsat 1B 25 May 03:42:51 03:48:05 59° 288° (WNW) 03:53:17 435.225
SWISSCUBE 25 May 03:45:43 03:48:36 16° 268° (W) 03:51:30 437.505
Oscar 19 25 May 03:45:44 03:49:49 24° 295° (WNW) 03:53:52 437.125/150
ITUPSAT 1 25 May 03:50:06 03:53:04 16° 268° (W) 03:56:02 437.325
Cosmos 2491 25 May 03:51:13 03:58:47 34° 84° (E) 04:06:21 435.465 / 435.565
AO-7 25 May 03:51:28 03:58:30 29° 96° (E) 04:05:30 29.400- 29.500
SO-50 25 May 03:55:15 03:56:38 11° 326° (NW) 03:58:01 436.795
Cosmos 2504 25 May 04:00:23 04:06:35 22° 66° (ENE) 04:12:58 435.465 / 435.565
ISS 25 May 04:07:28 04:10:10 23° 23° (NNE) 04:12:51 145.825
MOZHAYETS 4 25 May 04:14:24 04:18:56 90° 254° (WSW) 04:23:32
PHONESAT 2.4 25 May 04:17:36 04:20:30 35° 201° (SSW) 04:23:22 2401.200-2431.200
JAS-2 25 May 04:18:17 04:21:49 14° 309° (NW) 04:25:14 435.910
ITAMSAT 1 25 May 04:19:37 04:24:48 68° 287° (WNW) 04:30:00 435.822/435.867
KKS-1 25 May 04:21:24 04:25:46 51° 260° (W) 04:30:09 437.445
RS-15 25 May 04:32:53 04:44:34 52° 250° (WSW) 04:56:09 29.354- 29.394
YUBILEINY 25 May 04:53:48 05:02:18 58° 269° (W) 05:10:49 435.215
STARS 25 May 05:05:51 05:09:50 33° 263° (W) 05:13:50 437.465
CUBESAT XI-V 25 May 05:31:23 05:35:59 66° 75° (ENE) 05:40:40 437.345
HORYU 2 25 May 05:39:18 05:43:39 54° 100° (E) 05:47:59 437.375
AO-7 25 May 05:43:30 05:51:42 62° 294° (WNW) 05:59:54 29.400- 29.500
ISS 25 May 05:43:36 05:46:48 55° 220° (SW) 05:50:00 145.825
Cosmos 2491 25 May 05:46:38 05:55:12 53° 284° (WNW) 06:03:48 435.465 / 435.565
Cosmos 2504 25 May 05:52:25 06:00:48 80° 265° (W) 06:09:36 435.465 / 435.565
AO-85 25 May 05:57:01 06:00:38 18° 108° (ESE) 06:04:14 145.980
NOAA 18 25 May 06:01:11 06:04:08 15° 91° (E) 06:07:06 137.9125
BRITE-PL 25 May 06:22:02 06:25:58 22° 91° (E) 06:29:40 437.365/2234.400
Cubesat XI-IV 25 May 06:26:07 06:30:05 21° 93° (E) 06:34:03 437.490
NOAA 15 25 May 06:31:28 06:36:17 34° 97° (E) 06:41:02 137.62
LilacSat-2 25 May 06:44:53 06:48:03 25° 96° (E) 06:51:11 437.200
GOMX 1 25 May 07:01:47 07:05:34 23° 92° (E) 07:09:07 467.674
CUBESAT XI-V 25 May 07:12:00 07:13:49 12° 271° (W) 07:15:38 437.345
CUTE-I 25 May 07:12:25 07:17:41 57° 101° (E) 07:22:57 437.470
STRAND 1 25 May 07:16:02 07:21:04 67° 74° (ENE) 07:26:09 437.568
HORYU 2 25 May 07:17:16 07:19:46 15° 297° (WNW) 07:22:16 437.375
AO-85 25 May 07:35:14 07:40:40 67° 304° (NW) 07:46:00 145.980
AO-7 25 May 07:38:49 07:42:49 14° 314° (NW) 07:46:50 29.400- 29.500
NOAA 18 25 May 07:39:51 07:45:18 71° 287° (WNW) 07:50:45 137.9125
Cosmos 2504 25 May 07:48:36 07:52:54 15° 283° (WNW) 07:57:18 435.465 / 435.565
BRITE-PL 25 May 07:59:45 08:04:40 42° 290° (WNW) 08:09:13 437.365/2234.400
DOVE 4 25 May 08:04:45 08:09:04 48° 99° (E) 08:13:09 437.250
Cubesat XI-IV 25 May 08:05:15 08:10:24 49° 289° (WNW) 08:15:32 437.490
CANX-2 25 May 08:07:35 08:10:18 16° 92° (E) 08:12:59 2200.000
NOAA 15 25 May 08:11:21 08:15:57 30° 294° (WNW) 08:20:30 137.62
HO-68 25 May 08:15:03 08:20:57 27° 94° (E) 08:26:49 435.675
SEEDS 25 May 08:16:49 08:18:43 13° 91° (E) 08:20:35 437.485
LilacSat-2 25 May 08:19:20 08:22:13 21° 291° (WNW) 08:25:06 437.200
PRISM 25 May 08:27:05 08:31:11 65° 74° (ENE) 08:35:19 437.425
CUTE 1.7 + AOD 2 25 May 08:34:36 08:38:18 28° 96° (E) 08:42:00 437.475
GOMX 1 25 May 08:39:27 08:43:44 33° 291° (WNW) 08:47:45 467.674
Cosmos 2499 25 May 08:43:36 08:49:43 21° 65° (ENE) 08:55:57 435.465 / 435.565
GONETS M04 25 May 08:47:03 08:54:53 35° 71° (ENE) 09:02:37
CUTE-I 25 May 08:53:34 08:57:17 20° 298° (WNW) 09:01:01 437.470
CINEMA 3 25 May 08:56:09 09:00:14 50° 99° (E) 09:04:15 145.822/145.860
STRAND 1 25 May 08:58:06 09:00:42 14° 270° (W) 09:03:20 437.568
AIST 1 25 May 09:00:07 09:04:30 70° 81° (E) 09:08:47
SO-50 25 May 09:02:36 09:05:53 18° 41° (NE) 09:09:06 436.795
UWE-3 25 May 09:04:27 09:06:19 13° 91° (E) 09:08:11 435.000/436.395/437.385
AUBIESAT-1 25 May 09:06:37 09:09:55 61° 106° (ESE) 09:13:10 437.475
COMPASS 1 25 May 09:06:38 09:10:28 33° 97° (E) 09:14:16 437.405
M-CUBED/EXP-1 PRIME 25 May 09:10:48 09:14:06 89° 287° (WNW) 09:17:22 437.505
AAUSAT CUBESAT 2 25 May 09:12:04 09:15:47 30° 96° (E) 09:19:30 437.432
PCSat 25 May 09:12:21 09:13:20 10° 101° (E) 09:14:19 145.827
FUNcube-1 25 May 09:17:24 09:18:24 11° 90° (E) 09:19:23 145.935
AO-85 25 May 09:19:17 09:22:07 14° 323° (NW) 09:24:54 145.980
ANTELSAT 25 May 09:19:31 09:21:16 12° 63° (ENE) 09:23:01 437.575/2403.000
NOAA 18 25 May 09:24:41 09:24:58 10° 305° (NW) 09:25:16 137.9125
O/OREOS (USA 219) 25 May 09:28:24 09:31:29 18° 101° (E) 09:34:36 437.305
CANX-2 25 May 09:42:17 09:46:20 42° 288° (WNW) 09:50:22 2200.000
DOVE 4 25 May 09:43:43 09:46:18 15° 297° (WNW) 09:48:50 437.250
SEEDS 25 May 09:50:34 09:54:43 53° 286° (WNW) 09:58:51 437.485
HO-68 25 May 10:02:01 10:09:00 57° 292° (WNW) 10:15:59 435.675
Oscar 11 25 May 10:02:35 10:06:46 45° 99° (E) 10:10:55 145.826/435.025
CUBEBUG 2 25 May 10:04:26 10:08:36 87° 289° (WNW) 10:12:48 437.445
DELFI C3 25 May 10:05:37 10:08:47 22° 94° (E) 10:11:56 145.870
CUTE 1.7 + AOD 2 25 May 10:10:33 10:14:01 24° 291° (WNW) 10:17:29 437.475
ZACube-1 25 May 10:11:16 10:15:20 49° 100° (E) 10:19:26 437.345
UNISAT 6 25 May 10:11:58 10:16:09 44° 73° (ENE) 10:20:16 437.425
TIGRISAT 25 May 10:20:24 10:24:40 52° 74° (ENE) 10:28:52 435.000
POPSAT HIP 1 25 May 10:32:12 10:34:18 14° 64° (ENE) 10:36:25 437.405
QB50P1 25 May 10:32:45 10:34:58 14° 64° (ENE) 10:37:11 145.935-145.965
QB50P2 25 May 10:33:47 10:36:15 15° 64° (ENE) 10:38:42 145.880/145.840
CINEMA 3 25 May 10:34:53 10:36:56 13° 296° (WNW) 10:38:59 145.822/145.860
Cosmos 2499 25 May 10:35:14 10:43:48 86° 265° (W) 10:52:42 435.465 / 435.565
POLYITAN 1 25 May 10:36:10 10:38:40 15° 65° (ENE) 10:41:10 437.675
UWE-3 25 May 10:39:02 10:43:04 50° 286° (WNW) 10:47:08 435.000/436.395/437.385
SO-50 25 May 10:42:11 10:46:51 66° 241° (WSW) 10:51:20 436.795
COMPASS 1 25 May 10:42:40 10:45:49 21° 293° (WNW) 10:48:57 437.405
GONETS M04 25 May 10:43:39 10:51:54 50° 271° (W) 11:00:08
HUMSAT D 25 May 10:43:54 10:47:26 27° 96° (E) 10:50:59 437.325/437.525
AAUSAT CUBESAT 2 25 May 10:47:51 10:51:06 22° 292° (WNW) 10:54:21 437.432
PCSat 25 May 10:50:25 10:55:50 86° 118° (ESE) 11:01:18 145.827
FUNcube-1 25 May 10:50:53 10:55:00 60° 285° (WNW) 10:59:10 145.935
NANOSAT C BR1 25 May 10:51:39 10:54:50 21° 67° (ENE) 10:58:02 145.865
ANTELSAT 25 May 10:53:07 10:57:29 64° 259° (W) 11:01:47 437.575/2403.000
JAS-2 25 May 11:01:25 11:04:12 12° 50° (NE) 11:07:01 435.910
O/OREOS (USA 219) 25 May 11:06:12 11:10:33 42° 297° (WNW) 11:14:54 437.305
ESTCUBE 1 25 May 11:17:50 11:19:41 12° 90° (E) 11:21:32 437.505/2401.250
DUCHIFAT 1 25 May 11:30:29 11:34:35 53° 74° (ENE) 11:38:43 145.980
CUSAT 1 25 May 11:34:27 11:39:32 28° 84° (E) 11:45:34 437.405
Oscar 11 25 May 11:39:47 11:42:32 17° 295° (WNW) 11:45:17 145.826/435.025
DELFI C3 25 May 11:40:11 11:43:38 28° 290° (WNW) 11:47:05 145.870
ZACube-1 25 May 11:48:59 11:51:14 14° 295° (WNW) 11:53:28 437.345
VELOX 1 25 May 11:50:21 11:53:25 18° 93° (E) 11:56:28 145.980
UNISAT 6 25 May 11:50:23 11:53:04 16° 267° (W) 11:55:45 437.425
CUBEBUG 1 25 May 11:50:32 11:53:39 19° 93° (E) 11:56:44 437.445
HO-68 25 May 11:53:27 11:55:12 11° 311° (NW) 11:57:00 435.675
DX 1 25 May 11:54:31 11:57:19 17° 93° (E) 12:00:05 434.975-435.025
BEESAT 2 25 May 11:56:31 11:58:57 16° 110° (ESE) 12:01:24 435.950
TIGRISAT 25 May 11:59:26 12:01:38 14° 268° (W) 12:03:49 435.000
BUGSAT 1 25 May 11:59:54 12:04:02 54° 74° (ENE) 12:08:08 437.445
POPSAT HIP 1 25 May 12:05:28 12:09:37 54° 260° (W) 12:13:47 437.405
QB50P1 25 May 12:06:09 12:10:18 52° 260° (W) 12:14:27 145.935-145.965
QB50P2 25 May 12:07:33 12:11:39 48° 260° (W) 12:15:46 145.880/145.840
POLYITAN 1 25 May 12:10:00 12:14:06 46° 261° (W) 12:18:12 437.675
HUMSAT D 25 May 12:19:36 12:22:57 24° 291° (WNW) 12:26:20 437.325/437.525
AISAT 25 May 12:25:10 12:29:26 45° 99° (E) 12:33:39 437.250
NANOSAT C BR1 25 May 12:26:34 12:30:22 32° 263° (W) 12:34:12 145.865
SPROUT 25 May 12:29:45 12:32:49 19° 94° (E) 12:35:51 437.525
Cosmos 2499 25 May 12:30:44 12:35:43 17° 282° (WNW) 12:40:49 435.465 / 435.565
BEESAT 3 25 May 12:34:48 12:38:43 78° 120° (ESE) 12:42:40 437.485
PCSat 25 May 12:36:29 12:39:58 17° 317° (NW) 12:43:27 145.827
JAS-2 25 May 12:40:27 12:47:29 58° 70° (ENE) 12:55:07 435.910
DANDE 25 May 12:45:51 12:50:43 47° 90° (E) 12:57:07 436.750
UKube-1 25 May 12:47:39 12:51:53 52° 100° (E) 12:56:05 .
ESTCUBE 1 25 May 12:52:23 12:56:54 63° 286° (WNW) 13:01:22 437.505/2401.250
50 SAT 25 May 12:58:19 13:01:59 57° 285° (WNW) 13:05:38 437.505
TISAT 1 25 May 13:04:55 13:06:35 12° 91° (E) 13:08:15 437.305
DUCHIFAT 1 25 May 13:08:45 13:10:36 13° 269° (W) 13:12:26 145.980
CUSAT 1 25 May 13:15:15 13:21:07 50° 287° (WNW) 13:28:24 437.405
Oscar 19 25 May 13:22:11 13:27:17 59° 72° (ENE) 13:32:25 437.125/150
Gurwin Techsat 1B 25 May 13:24:50 13:29:14 27° 66° (ENE) 13:33:39 435.225
VELOX 1 25 May 13:25:53 13:30:03 40° 289° (WNW) 13:34:09 145.980
CUBEBUG 1 25 May 13:26:00 13:30:04 38° 289° (WNW) 13:34:05 437.445
DX 1 25 May 13:29:34 13:33:42 43° 289° (WNW) 13:37:48 434.975-435.025
BEESAT 2 25 May 13:32:38 13:36:26 44° 307° (NW) 13:40:17 435.950
BUGSAT 1 25 May 13:37:55 13:39:42 12° 269° (W) 13:41:30 437.445
AIST 2 25 May 13:44:31 13:46:49 15° 109° (ESE) 13:49:07 435.215
ITAMSAT 1 25 May 13:59:25 14:03:22 23° 64° (ENE) 14:07:20 435.822/435.867
Cosmos 2491 25 May 14:02:33 14:07:26 16° 60° (ENE) 14:12:17 435.465 / 435.565
AISAT 25 May 14:02:40 14:05:32 17° 296° (WNW) 14:08:23 437.250
SPROUT 25 May 14:04:59 14:08:52 35° 289° (WNW) 14:12:43 437.525
SWISSCUBE 25 May 14:07:59 14:10:23 14° 91° (E) 14:12:46 437.505
ITUPSAT 1 25 May 14:12:45 14:15:06 13° 91° (E) 14:17:27 437.325
BEESAT 3 25 May 14:15:08 14:16:55 13° 319° (NW) 14:18:43 437.485
UKube-1 25 May 14:25:05 14:27:29 15° 297° (WNW) 14:29:54 .
JAS-2 25 May 14:26:45 14:32:51 29° 269° (W) 14:39:24 435.910
AO-85 25 May 14:28:46 14:31:38 15° 38° (NE) 14:34:20 145.980
DANDE 25 May 14:29:34 14:34:02 25° 296° (WNW) 14:39:32 436.750
BEESAT 25 May 14:36:47 14:40:41 25° 95° (E) 14:44:35 436.000
TISAT 1 25 May 14:38:29 14:42:33 53° 287° (WNW) 14:46:36 437.305
